"Pseudo-MPEC" for W017312

Created 2025 Jul 7 22:35:13 UT using Find_Orb

Click here for an explanation of pseudo-MPECs

 
 Astrometry: 
     W017312* C2025 07 03.86515020 01 36.34 -05 23 47.6    ~75Fo 20.9 rVNEOCPO18
     W017312  C2025 07 03.87047520 01 36.23 -05 23 45.4    ~75Fo 21.1 rVNEOCPO18
     W017312  C2025 07 03.87584520 01 36.10 -05 23 43.1    ~75Fo 21.2 rVNEOCPO18

Station data:
(O18) WFST, Lenghu  (N38.607601 E93.895220).

Orbital elements:  W017312
   Perihelion 2025 May 3.16860 +/- 61.2 TT =  4:02:46 (JD 2460798.66860)
Epoch 2025 Jul  4.0 TT = JDT 2460860.5   Earth MOID: 0.5005   Ju: 0.7236
M   2.61840346 +/- 22               Ma: 0.0001   Sa: 0.7112      AutoNEOCP
n   0.04234746 +/- 0.14             Peri.    3.86731 +/- 80
a   8.15175414 +/- 18               Node   245.58730 +/- 51
e   0.8142537 +/- 0.244             Incl.    8.87727 +/- 4.1
P  23.27430                H 19.96  G  0.15   U 11.4  SR
q 1.51415741 +/- 0.701    Q 14.7893508 +/- 128            (J2000 ecliptic)
From 3 observations 2025 July 3 (15.4 min); mean residual 0".05
Residuals in arcseconds: 
250703 O18  .05-  .02+    250703 O18  .10+  .03-    250703 O18  .05-  .01+    

Ephemerides (geocentric):
Date (UTC) HH   RA             Dec           delta  r     elong  mag " sig PA
---- --------  ------------   ------------  ------ ------ -----  --- --------
2025 07 07 23  20 00 12.084   -04 58 21.93  .73460 1.7211 158.4 21.2  35d  91
2025 07 08 00  20 00 11.160   -04 58 08.47  .73477 1.7213 158.5 21.2  35d  91
2025 07 08 01  20 00 10.235   -04 57 55.04  .73494 1.7215 158.5 21.2  35d  91
2025 07 08 02  20 00 09.308   -04 57 41.66  .73511 1.7218 158.5 21.2  35d  91
2025 07 08 03  20 00 08.381   -04 57 28.31  .73528 1.7220 158.5 21.2  35d  91
2025 07 08 04  20 00 07.453   -04 57 15.01  .73545 1.7223 158.6 21.2  35d  91
2025 07 08 05  20 00 06.523   -04 57 01.74  .73562 1.7225 158.6 21.2  35d  91
2025 07 08 06  20 00 05.593   -04 56 48.52  .73580 1.7227 158.6 21.2  35d  90
2025 07 08 07  20 00 04.661   -04 56 35.33  .73597 1.7230 158.6 21.2  35d  90
2025 07 08 08  20 00 03.729   -04 56 22.18  .73614 1.7232 158.7 21.2  35d  90
2025 07 08 09  20 00 02.796   -04 56 09.07  .73631 1.7235 158.7 21.2  35d  90
2025 07 08 10  20 00 01.861   -04 55 56.01  .73649 1.7237 158.7 21.2  35d  89
2025 07 08 11  20 00 00.926   -04 55 42.98  .73666 1.7240 158.7 21.2  35d  89
2025 07 08 12  19 59 59.989   -04 55 29.99  .73683 1.7242 158.8 21.2  35d  89
2025 07 08 13  19 59 59.052   -04 55 17.03  .73701 1.7244 158.8 21.2  35d  89
2025 07 08 14  19 59 58.113   -04 55 04.12  .73718 1.7247 158.8 21.2  35d  89
2025 07 08 15  19 59 57.174   -04 54 51.25  .73736 1.7249 158.8 21.2  35d  89
2025 07 08 16  19 59 56.233   -04 54 38.42  .73753 1.7252 158.9 21.2  35d  89
2025 07 08 17  19 59 55.292   -04 54 25.62  .73771 1.7254 158.9 21.2  35d  89
2025 07 08 18  19 59 54.350   -04 54 12.87  .73788 1.7256 158.9 21.2  35d  89
2025 07 08 19  19 59 53.406   -04 54 00.15  .73806 1.7259 159.0 21.2  35d  89
2025 07 08 20  19 59 52.462   -04 53 47.47  .73823 1.7261 159.0 21.2  35d  89
2025 07 08 21  19 59 51.517   -04 53 34.84  .73841 1.7264 159.0 21.2  35d  89
2025 07 08 22  19 59 50.571   -04 53 22.24  .73859 1.7266 159.0 21.2  35d  89
2025 07 08 23  19 59 49.624   -04 53 09.68  .73876 1.7269 159.1 21.2  35d  89
2025 07 09 00  19 59 48.676   -04 52 57.16  .73894 1.7271 159.1 21.2  35d  87
2025 07 09 01  19 59 47.727   -04 52 44.68  .73912 1.7273 159.1 21.2  35d  87
2025 07 09 02  19 59 46.778   -04 52 32.23  .73930 1.7276 159.1 21.2  35d  87
2025 07 09 03  19 59 45.827   -04 52 19.83  .73948 1.7278 159.2 21.2  35d  87
2025 07 09 04  19 59 44.876   -04 52 07.47  .73965 1.7281 159.2 21.2  35d  87
2025 07 09 05  19 59 43.923   -04 51 55.14  .73983 1.7283 159.2 21.2  35d  87
2025 07 09 06  19 59 42.970   -04 51 42.85  .74001 1.7286 159.2 21.2  35d  87
2025 07 09 07  19 59 42.016   -04 51 30.61  .74019 1.7288 159.3 21.2  35d  87
2025 07 09 08  19 59 41.061   -04 51 18.40  .74037 1.7290 159.3 21.2  35d  87
2025 07 09 09  19 59 40.105   -04 51 06.23  .74055 1.7293 159.3 21.2  35d  87
2025 07 09 10  19 59 39.148   -04 50 54.10  .74073 1.7295 159.3 21.2  35d  87
2025 07 09 11  19 59 38.190   -04 50 42.00  .74091 1.7298 159.4 21.2  35d  87
2025 07 09 12  19 59 37.232   -04 50 29.95  .74109 1.7300 159.4 21.2  35d  87
2025 07 09 13  19 59 36.273   -04 50 17.94  .74127 1.7303 159.4 21.2  35d  87
2025 07 09 14  19 59 35.313   -04 50 05.96  .74146 1.7305 159.4 21.2  35d  87
2025 07 09 15  19 59 34.352   -04 49 54.02  .74164 1.7307 159.5 21.2  35d  87
2025 07 09 16  19 59 33.390   -04 49 42.12  .74182 1.7310 159.5 21.2  35d  87
2025 07 09 17  19 59 32.428   -04 49 30.26  .74200 1.7312 159.5 21.2  35d  87
2025 07 09 18  19 59 31.464   -04 49 18.44  .74218 1.7315 159.5 21.2  35d  87
2025 07 09 19  19 59 30.500   -04 49 06.66  .74237 1.7317 159.6 21.2  35d  87
2025 07 09 20  19 59 29.535   -04 48 54.92  .74255 1.7320 159.6 21.2  35d  87
2025 07 09 21  19 59 28.569   -04 48 43.21  .74273 1.7322 159.6 21.2  35d  87
2025 07 09 22  19 59 27.603   -04 48 31.55  .74292 1.7325 159.6 21.2  35d  87